Montana Department of Transportation

Main Content

Accidents and Incidents Report

Hourly Weather Roundup

ASUS45 KTFX 140710
RWRMT 
MONTANA REGIONAL WEATHER ROUNDUP
NATIONAL WEATHER SERVICE GREAT FALLS MT
1200 AM MST SUN FEB 14 2016

NOTE: "FAIR" INDICATES FEW OR NO CLOUDS BELOW 12000 FEET WITH NO
SIGNIFICANT WEATHER AND/OR OBSTRUCTIONS TO VISIBILITY.

MTZ001.007-043-140800-
WEST OF THE DIVIDE
  
CITY           SKY/WX    TMP DP  RH WIND       PRES   REMARKS
KALISPELL      MIX PCPN  36  30  79 S10       30.01F WCI  28          
MISSOULA       CLOUDY    37  28  70 N3        30.06F                  
BUTTE          CLOUDY    32  22  66 SW6       30.01F WCI  26          
MULLAN PASS    SNOW      25  23  92 W8        29.97F VSB 1/2 WCI  16  
ANACONDA         N/A     34  23  64 SE6       29.99F WCI  29          
DEER LODGE       N/A     34  21  60 N5        30.01F                  
HAMILTON         N/A     37  28  70 SE14      30.05F WCI  29          
PLAINS           N/A     38  31  76 CALM      30.05F                  
THOMPSON FALLS   N/A     36  32  85 SW2       30.11                   
--------------------------------

MTZ008-052.055-140800-
SOUTHWEST MONTANA
  
CITY           SKY/WX    TMP DP  RH WIND       PRES   REMARKS
BOZEMAN        CLOUDY    39  22  50 W13       30.01F WCI  31          
DILLON         CLOUDY    34  21  59 SW8       30.03F WCI  27          
ENNIS          MOCLDY    32  25  74 S23G29    30.10F HAZE    WCI  19  
TWIN BRIDGES     N/A     36  20  52 SE9       30.02F WCI  29          
--------------------------------

MTZ009-010-012-014-046-048-049-054-140800-
EAST SLOPES AND CENTRAL MONTANA
  
CITY           SKY/WX    TMP DP  RH WIND       PRES   REMARKS
CUT BANK       CLOUDY    36  21  54 W21       29.85F WCI  25          
GREAT FALLS    CLOUDY    39  21  48 SW16      29.90F WCI  30          
MALMSTROM AFB  CLOUDY    40  22  48 SW22G31   29.90F                  
HELENA         CLOUDY    37  22  54 W7        29.99F WCI  32          
CHOTEAU          N/A     37  19  48 SW7       29.89F                  
CONRAD           N/A     36  26  67 S3        29.91F                  
--------------------------------

MTZ011-013-016-021-045-047-050-051-140800-
NORTH CENTRAL MONTANA
  
CITY           SKY/WX    TMP DP  RH WIND       PRES   REMARKS
HAVRE          CLEAR     30  23  75 W6        29.88F WCI  24          
LEWISTOWN      CLOUDY    31  20  63 SW7       29.91F WCI  24          
N BAR RANCH      N/A     34  14  44 W8        29.92F WCI  27          
CHINOOK          N/A     28  23  80 SW3       29.88F                  
--------------------------------

MTZ017.020-022.027-061-062-140800-
NORTHEAST MONTANA
  
CITY           SKY/WX    TMP DP  RH WIND       PRES   REMARKS
GLASGOW        CLEAR     30  26  85 NW6       29.84F WCI  24          
JORDAN           N/A     33  28  81 W8        29.88S WCI  26          
SIDNEY         CLOUDY    36  28  75 NW7       29.83S WCI  30          
WOLF POINT     CLEAR     31  27  85 W5        29.85S                  
PLENTYWOOD       N/A     32  28  86 NW16      29.78S WCI  21          
POPLAR           N/A     32  28  86 SW3       29.85S                  
SCOBEY           N/A     29  19  66 W12       29.79F WCI  19          
--------------------------------

MTZ028.42-056.058-140800-
SOUTHCENTRAL AND SOUTHEAST MONTANA
  
CITY           SKY/WX    TMP DP  RH WIND       PRES   REMARKS
BAKER          CLEAR     32  28  85 W15       29.86R WCI  22          
BILLINGS       CLOUDY    37  18  46 S9        29.95F WCI  30          
LIVINGSTON     CLOUDY    41  15  35 W24G39    29.95S                  
MILES CITY     MOCLDY    37  28  70 W14       29.90F WCI  28          
EKALAKA          N/A     31  26  81 W9        29.87S WCI  23          
FORSYTH          N/A     37  27  65 W9        29.93F WCI  31          
LAUREL           N/A     34  17  50 SW1       29.95F                  
ROUNDUP          N/A     35  17  48 SW12      29.86F WCI  27          
--------------------------------

REGIONAL REPORTS...DAKOTAS
  
CITY           SKY/WX    TMP DP  RH WIND       PRES   REMARKS
WILLISTON      CLOUDY    29  24  82 NW9       29.80F WCI  20          
MINOT          LGT SNOW  19  13  77 SE5       29.75F                  
DICKINSON      CLOUDY    31  27  85 NW20      29.76S WCI  19          
CROSBY         CLOUDY    25  25 100 NW18      29.79S WCI  11          
TIOGA          CLOUDY    23  23 100 NW16      29.79F WCI  10          
BISMARCK       CLOUDY    20  15  81 SE8       29.81F HAZE    WCI  10  
GRAND FORKS    LGT SNOW  13   7  77 S21G29    30.02F WCI  -5          
FARGO          CLOUDY    13   4  67 S25G35    30.04F WCI  -7          
BUFFALO SD       N/A     36  30  79 NW24      29.76F WCI  24          
RAPID CITY     CLEAR     39  27  62 NW24G32   29.86F WCI  28          
--------------------------------

REGIONAL REPORTS...WYOMING/IDAHO/WASHINGTON
  
CITY           SKY/WX    TMP DP  RH WIND       PRES   REMARKS
GILLETTE       CLEAR     29  23  78 W13       29.96F WCI  19          
SHERIDAN       CLOUDY    27  19  72 S5        29.97F                  
BUFFALO WY     CLEAR     32  14  47 SW7       29.97F WCI  26          
CODY           CLOUDY    39  16  38 SW14G23   29.97F WCI  31          
YELLOWSTONE LA   N/A     23  17  78 VRB3      30.10F                  
IDAHO FALLS    CLOUDY    35  27  72 S18       30.17F WCI  24          
SALMON         CLOUDY    34  27  75 CALM      30.10F                  
BOISE          CLOUDY    45  29  53 NE12      30.19F                  
SPOKANE        CLOUDY    38  36  92 S17G25    30.04F WCI  28          
--------------------------------

REGIONAL REPORTS...ALBERTA
  
CITY           SKY/WX    TMP DP  RH WIND       PRES   REMARKS
EDMONTON       MOCLDY    34  25  69 SW5       29.65F                  
CALGARY        MOCLDY    37  19  48 SW6       29.69F                  
LETHBRIDGE     MOCLDY    37  25  60 SW15G22   29.78F WCI  28          
MEDICINE HAT   MOCLDY    32  28  86 S10       29.77F WCI  24          
WATERTON GATE    N/A     36  21  55 SW20G28     N/A  WCI  25          
CARDSTON         N/A     37  19  48 W9          N/A  WCI  31          
MILK RIVER       N/A     37  25  60 W17G23      N/A  WCI  28          
ONEFOUR          N/A     34  25  69 W10         N/A  WCI  26          
--------------------------------

REGIONAL REPORTS...SASKATCHEWAN
  
CITY           SKY/WX    TMP DP  RH WIND       PRES   REMARKS
SWIFT CURRENT  CLEAR     25  23  93 W10       29.76F WCI  15          
REGINA         FLURRIES  21  19  93 W7        29.75S WCI  13          
SASKATOON      PTCLDY    14  12  92 SW7       29.73F FOG     WCI   4  
CYPRESS HILLS    N/A     27  25  93 W8          N/A  WCI  18          
VAL MARIE        N/A     30  27  86 W14         N/A  WCI  20          
ROCKGLEN         N/A     30  27  86 NW17G25     N/A  WCI  18          
ASSINIBOIA       N/A     32  28  86 SW7         N/A  WCI  26          
--------------------------------